Regional Weather Roundup
Issued by NWS Grand Forks, ND

Home | Current Version | Previous Version | Graphics & Text | Print | Product List | Glossary On
Versions: 1 2 3 4 5 6 7 8 9 10 11 12 13 14 15 16 17 18 19 20 21 22 23 24 25 26 27 28 29 30 31 32 33 34 35 36 37 38 39 40 41 42 43 44 45 46 47 48 49 50
000
ASUS43 KFGF 220610
RWRFGF
PRAIRIE TO PINES  WEATHER ROUNDUP
NATIONAL WEATHER SERVICE EASTERN NORTH DAKOTA/GRAND FORKS ND
100 AM CDT WED OCT 22 2014

 **SATELLITE DATA USED TO AUGMENT SKY COVER AT AUTOMATED STATIONS**
 *****  WEATHER ACROSS EASTERN NORTH DAKOTA  *****

CITY           SKY/WX    TMP DP  RH WIND       PRES   REMARKS
GRAND FORKS    CLEAR     55  41  59 S17G29    29.85S
6HR MIN TEMP:  53; 6HR MAX TEMP:  60;

GRAND FRKS AFB CLEAR     55  42  63 S20G28    29.84S
GRAND FRKS NWS   N/A     52 N/A N/A S15         N/A
DEVILS LAKE    PTCLDY    61  43  51 S21G29    29.71F
6HR MIN TEMP:  59; 6HR MAX TEMP:  63;

FARGO          CLEAR     56  41  57 SE22G33   29.90F
WAHPETON ARPT  CLEAR     52  37  58 SE17G25   29.94F
$$

 ***** WEATHER ACROSS CENTRAL AND WESTERN NORTH DAKOTA  *****

CITY           SKY/WX    TMP DP  RH WIND       PRES   REMARKS
BISMARCK       CLEAR     65  42  43 S20G28    29.66S
6HR MIN TEMP:  64; 6HR MAX TEMP:  76;

MINOT          CLEAR     65  42  43 S16G28    29.58R
6HR MIN TEMP:  55; 6HR MAX TEMP:  68;

JAMESTOWN      PTCLDY    60  44  55 S17       29.77F
6HR MIN TEMP:  58; 6HR MAX TEMP:  65;

MINOT AFB      CLEAR     62  46  55 S16       29.57S
GARRISON         N/A     61  48  62 S7        29.63R
WILLISTON      MOCLDY    54  43  66 CALM      29.63R
6HR MIN TEMP:  42; 6HR MAX TEMP:  70;

DICKINSON      MOCLDY    54  42  64 W13       29.67R
6HR MIN TEMP:  51; 6HR MAX TEMP:  66;

HETTINGER      MOCLDY    59  42  53 W8        29.73R
6HR MIN TEMP:  57; 6HR MAX TEMP:  70;

$$

 *****  OTHER AIRPORT OBSERVATIONS IN OUR AREA  *****

CITY           SKY/WX    TMP DP  RH WIND       PRES   REMARKS
WALHALLA         N/A     55  41  58 S18G29    29.76F
GRAFTON AIRPOR FAIR      52  41  66 S20       29.83S
VALLEY CITY AR FAIR      55  43  62 S16G23    29.83S
CANDO          FAIR      57  45  62 S16G22    29.69F
CAVALIER APRT  FAIR      54  41  62 S17G24    29.79F
GWINNER        CLEAR     54  41  62 SE14      29.88S
SHEYENNE NWR     N/A     54  41  62 SE14      29.95
ROLLA          FAIR      57  43  58 S16G23    29.68F
 ***** THE ABOVE OBSERVATIONS ARE NON NWS ARE NOT QUALITY
       CONTROLLED AND MAY MIS-REPORT RAIN FOR SNOW...
$$

  *****  WEATHER ACROSS NORTHERN MINNESOTA  *****

CITY           SKY/WX    TMP DP  RH WIND       PRES   REMARKS
FLAG ISLAND    CLEAR     46  39  76 S28       29.95S
WARROAD        FAIR      50  41  71 S14G23    29.94S
ROSEAU         PTCLDY    52  41  66 S20G26    29.91F
HALLOCK        CLEAR     54  41  62 S21G26    29.84F
THF RVR FALLS  CLEAR     52  39  62 SE16      29.92S
6HR MIN TEMP:  52; 6HR MAX TEMP:  55;

BAUDETTE       CLEAR     45  36  70 SE10G18   30.00S
6HR MIN TEMP:  44; 6HR MAX TEMP:  49;

WASKISH        CLEAR     46  37  71 SE15G22   30.00F
CROOKSTON      CLEAR     54  41  62 S23G31    29.90S
STEPHEN NDAWN    N/A     54  43  66 S21         N/A
GREENBUSH NDAW   N/A     52  39  62 S18         N/A
$$
  *****  WEATHER ACROSS CENTRAL AND WEST MINNESOTA  *****

CITY           SKY/WX    TMP DP  RH WIND       PRES   REMARKS
FOSSTON        CLEAR     48  37  66 SE20G26   29.96S
BEMIDJI        CLEAR     46  38  74 SE12      30.03F
PARK RAPIDS    CLEAR     45  38  76 SE14      30.05S
6HR MIN TEMP:  45; 6HR MAX TEMP:  51;

ELBOW LAKE     FAIR      53  40  63 SE22G33   29.99S
6HR MIN TEMP:  52; 6HR MAX TEMP:  56;

WADENA         CLEAR     45  37  76 SE13      30.04S
DETROIT LAKES  CLEAR     48  41  76 SE14G20   30.00S
MOORHEAD       CLEAR     55  43  62 S24G35    29.92F
FERGUS FALLS   CLEAR     54  37  54 S18       29.99R
MORRIS MN      CLEAR     50  41  71 SE18      29.99F
STAPLES        CLEAR     46  37  71 SE13G20   30.07S
$$
  *****  WEATHER ELSEWHERE ACROSS MINNESOTA  *****

CITY           SKY/WX    TMP DP  RH WIND       PRES   REMARKS
DULUTH         CLEAR     39  35  86 SE9       30.18F
6HR MIN TEMP:  37; 6HR MAX TEMP:  41;

INTRNTL FALLS  CLEAR     39  34  82 SE9       30.08S
6HR MIN TEMP:  39; 6HR MAX TEMP:  43;

ELY            CLEAR     37  36  93 SE7       30.17F
CLOQUET        CLEAR     37  34  87 E5        30.17F
WHEATON        CLEAR     52  39  62 SE18G25   29.96F
BRAINERD       CLEAR     46  38  73 SE10      30.11S
6HR MIN TEMP:  46; 6HR MAX TEMP:  49;

HIBBING        CLEAR     36  33  89 SE7       30.16S
6HR MIN TEMP:  34; 6HR MAX TEMP:  40;

ALEXANDRIA     CLEAR     47  40  76 SE13      30.05F
6HR MIN TEMP:  47; 6HR MAX TEMP:  54;

SAINT CLOUD    FAIR      48  38  68 SE10      30.12F
6HR MIN TEMP:  48; 6HR MAX TEMP:  55;

MINNEAPOLIS    CLEAR     44  37  76 SE12      30.18S
6HR MIN TEMP:  44; 6HR MAX TEMP:  53;

$$

  *****  WEATHER ACROSS SOUTH DAKOTA  *****

CITY           SKY/WX    TMP DP  RH WIND       PRES   REMARKS
SIOUX FALLS    CLEAR     55  43  63 SE16G25   30.01F
6HR MIN TEMP:  55; 6HR MAX TEMP:  67;

BROOKINGS      NOT AVBL
WATERTOWN      PTCLDY    55  41  59 S24G32    29.94F
6HR MIN TEMP:  55; 6HR MAX TEMP:  66;

HURON          CLEAR     60  40  47 S15G28    29.88F
6HR MIN TEMP:  60; 6HR MAX TEMP:  72;

SISSETON         N/A     52  42  69 S13       29.92F
ABERDEEN       CLEAR     63  42  46 S22G37    29.84F
6HR MIN TEMP:  63; 6HR MAX TEMP:  71;

MITCHELL       CLEAR     60  40  47 SE20      29.92S
PIERRE         PTCLDY    62  50  64 SE13      29.77S
6HR MIN TEMP:  62; 6HR MAX TEMP:  74;

MOBRIDGE       PTCLDY    66  48  52 S18G31    29.69F
RAPID CITY     PTCLDY    62  42  47 SW5       29.77S
6HR MIN TEMP:  55; 6HR MAX TEMP:  70;

$$

  *****  SOME WEATHER IN NEARBY STATES *****

CITY           SKY/WX    TMP DP  RH WIND       PRES   REMARKS
GLASGOW MT     MOCLDY    51  44  77 W18       29.73R
6HR MIN TEMP:  51; 6HR MAX TEMP:  64;

GREAT FALLS MT MOCLDY    42  36  79 SW14      29.90R
6HR MIN TEMP:  42; 6HR MAX TEMP:  45; 6HR PCP:  0.04;

CHEYENNE WY    RAIN      52  40  63 N6        30.05R
6HR MIN TEMP:  51; 6HR MAX TEMP:  61; 6HR PCP:  0.01;

SCOTTSBLUFF NE LGT RAIN  62  46  55 W14       29.91R
6HR MIN TEMP:  57; 6HR MAX TEMP:  69; 6HR PCP: TRACE;

OMAHA NE       PTCLDY    57  44  62 SE17      30.07F
6HR MIN TEMP:  57; 6HR MAX TEMP:  64;

DES MOINES IA  CLEAR     50  39  66 SE9       30.18R
6HR MIN TEMP:  50; 6HR MAX TEMP:  60;

DAVENPORT IA   CLEAR     38  33  82 E7        30.26S
6HR MIN TEMP:  37; 6HR MAX TEMP:  48;

CHICAGO IL     MOCLDY    46  37  71 NE5       30.25S
6HR MIN TEMP:  46; 6HR MAX TEMP:  49;

EAU CLAIRE WI  CLEAR     41  34  76 SE8       30.25R
6HR MIN TEMP:  39; 6HR MAX TEMP:  49;

LA CROSSE WI   CLEAR     39  34  82 E7        30.27R
6HR MIN TEMP:  39; 6HR MAX TEMP:  51;

$$

  *****  SOME NATIONAL WEATHER *****

CITY           SKY/WX    TMP DP  RH WIND       PRES   REMARKS
LA GUARDIA NY  CLOUDY    59  54  83 NE13      29.89F
6HR MIN TEMP:  57; 6HR MAX TEMP:  63;

RALEIGH NC     PTCLDY    52  39  61 NW5       29.93F
6HR MIN TEMP:  52; 6HR MAX TEMP:  65;

ATLANTA GA     CLEAR     53  46  77 CALM      30.02S
6HR MIN TEMP:  53; 6HR MAX TEMP:  66;

NEW ORLEANS LA CLEAR     64  56  75 CALM      30.02F
6HR MIN TEMP:  62; 6HR MAX TEMP:  74;

OKLAHOMA CITY  CLEAR     60  56  86 SE6       30.06F
6HR MIN TEMP:  60; 6HR MAX TEMP:  72;

ALBUQUERQUE NM MOCLDY    58  47  66 CALM      30.11F
6HR MIN TEMP:  56; 6HR MAX TEMP:  67;

SALT LAKE CITY PTCLDY    46  36  68 W5        30.09R
6HR MIN TEMP:  44; 6HR MAX TEMP:  59;




USA.gov is the U.S. government's official web portal to all federal, state and local government web resources and services.